TimeEDT,TemperatureF,Dew PointF,Humidity,Sea Level PressureIn,VisibilityMPH,Wind Direction,Wind SpeedMPH,Gust SpeedMPH,PrecipitationIn,Events,Conditions,WindDirDegrees,DateUTC
12:53 AM,60.1,50.0,69,29.83,10.0,SW,5.8,-,0.00,Rain,Light Rain,230,2012-10-06 04:53:00
1:53 AM,57.0,51.1,81,29.82,10.0,SW,5.8,-,0.00,,Overcast,220,2012-10-06 05:53:00
2:53 AM,55.9,50.0,80,29.81,10.0,SW,3.5,-,0.00,Rain,Light Rain,220,2012-10-06 06:53:00
3:46 AM,53.6,50.0,88,29.79,5.0,WSW,3.5,-,0.06,Rain,Light Rain,250,2012-10-06 07:46:00
3:53 AM,53.1,51.1,93,29.79,5.0,WSW,3.5,-,0.06,Rain,Light Rain,240,2012-10-06 07:53:00
4:21 AM,51.8,48.2,88,29.80,6.0,NNW,6.9,-,0.05,Rain,Light Rain,330,2012-10-06 08:21:00
4:46 AM,50.0,48.2,94,29.79,3.0,NNW,5.8,-,0.11,Rain,Rain,330,2012-10-06 08:46:00
4:53 AM,50.0,48.0,93,29.80,3.0,NNW,4.6,-,0.13,Rain,Rain,340,2012-10-06 08:53:00
5:26 AM,50.0,48.2,94,29.78,5.0,NW,8.1,-,0.06,Rain,Rain,310,2012-10-06 09:26:00
5:53 AM,48.9,46.9,93,29.78,4.0,Variable,3.5,-,0.13,Rain,Rain,0,2012-10-06 09:53:00
5:58 AM,48.2,46.4,93,29.77,5.0,North,4.6,-,0.01,Rain,Rain,350,2012-10-06 09:58:00
6:07 AM,48.2,46.4,93,29.77,7.0,Calm,Calm,-,0.02,Rain,Light Rain,0,2012-10-06 10:07:00
6:53 AM,48.0,46.0,93,29.79,4.0,NW,4.6,-,0.10,Rain,Rain,310,2012-10-06 10:53:00
7:14 AM,48.2,46.4,93,29.79,4.0,West,4.6,-,0.06,Rain,Rain,280,2012-10-06 11:14:00
7:24 AM,48.2,46.4,93,29.79,3.0,West,3.5,-,0.08,Rain,Rain,260,2012-10-06 11:24:00
7:53 AM,48.0,46.0,93,29.80,2.5,West,5.8,-,0.16,Rain,Rain,270,2012-10-06 11:53:00
8:03 AM,48.2,46.4,93,29.79,3.0,SW,4.6,-,0.02,Rain,Rain,230,2012-10-06 12:03:00
8:11 AM,48.2,46.4,93,29.79,5.0,SW,4.6,-,0.02,Rain,Light Rain,230,2012-10-06 12:11:00
8:23 AM,48.2,46.4,93,29.79,7.0,SW,4.6,-,0.03,Rain,Light Rain,230,2012-10-06 12:23:00
8:53 AM,48.0,46.9,96,29.80,6.0,WSW,4.6,-,0.04,Rain,Light Rain,240,2012-10-06 12:53:00
9:11 AM,48.2,46.4,93,29.78,5.0,SW,4.6,-,0.01,Rain,Light Rain,220,2012-10-06 13:11:00
9:19 AM,48.2,46.4,93,29.78,5.0,SW,4.6,-,0.02,Rain,Light Rain,230,2012-10-06 13:19:00
9:36 AM,48.2,46.4,93,29.78,10.0,WSW,3.5,-,0.02,,Overcast,240,2012-10-06 13:36:00
9:51 AM,48.2,48.2,100,29.79,9.0,WSW,4.6,-,0.02,,Overcast,240,2012-10-06 13:51:00
9:53 AM,48.9,46.9,93,29.80,9.0,WSW,5.8,-,0.02,,Overcast,240,2012-10-06 13:53:00
10:14 AM,48.2,48.2,100,29.78,5.0,SW,4.6,-,0.00,Rain,Light Rain,230,2012-10-06 14:14:00
10:43 AM,48.2,48.2,100,29.78,6.0,SW,6.9,-,0.00,Rain,Light Rain,220,2012-10-06 14:43:00
10:53 AM,48.9,48.0,97,29.79,7.0,SW,5.8,-,0.01,Rain,Light Rain,230,2012-10-06 14:53:00
11:43 AM,51.8,48.2,88,29.78,10.0,SSW,9.2,-,0.00,,Overcast,210,2012-10-06 15:43:00
11:53 AM,51.1,48.9,92,29.79,10.0,SW,11.5,-,0.00,,Overcast,220,2012-10-06 15:53:00
12:30 PM,53.6,48.2,82,29.78,10.0,WSW,12.7,18.4,N/A,,Overcast,240,2012-10-06 16:30:00
12:53 PM,55.0,50.0,83,29.79,10.0,SW,13.8,19.6,N/A,,Overcast,220,2012-10-06 16:53:00
1:53 PM,55.9,46.9,72,29.77,10.0,SW,12.7,-,N/A,,Scattered Clouds,230,2012-10-06 17:53:00
2:06 PM,55.4,48.2,77,29.76,10.0,SW,16.1,-,N/A,,Mostly Cloudy,220,2012-10-06 18:06:00
2:16 PM,57.2,46.4,67,29.77,10.0,SW,15.0,-,N/A,,Scattered Clouds,220,2012-10-06 18:16:00
2:53 PM,59.0,43.0,55,29.76,10.0,WSW,16.1,27.6,N/A,,Scattered Clouds,240,2012-10-06 18:53:00
3:53 PM,60.1,39.9,47,29.76,10.0,SW,19.6,26.5,N/A,,Mostly Cloudy,230,2012-10-06 19:53:00
4:53 PM,57.9,39.0,49,29.77,10.0,WSW,13.8,31.1,N/A,,Clear,240,2012-10-06 20:53:00
5:53 PM,55.0,39.0,55,29.80,10.0,WSW,16.1,24.2,N/A,,Mostly Cloudy,240,2012-10-06 21:53:00
6:53 PM,53.6,37.4,54,29.82,10.0,SW,12.7,21.9,N/A,,Overcast,230,2012-10-06 22:53:00
7:53 PM,51.1,37.0,59,29.86,10.0,WSW,10.4,-,N/A,,Scattered Clouds,240,2012-10-06 23:53:00
8:53 PM,50.0,37.9,63,29.89,10.0,SW,9.2,-,N/A,,Mostly Cloudy,230,2012-10-07 00:53:00
9:53 PM,48.0,37.9,68,29.91,10.0,SW,9.2,-,N/A,,Partly Cloudy,230,2012-10-07 01:53:00
10:53 PM,48.9,37.9,66,29.93,10.0,WSW,11.5,20.7,N/A,,Scattered Clouds,240,2012-10-07 02:53:00
11:53 PM,46.9,37.0,68,29.94,10.0,WSW,9.2,-,N/A,,Clear,240,2012-10-07 03:53:00